Location: Unspecified
(47.6578°N, 23.5640°E)
Time: 02:41:21
(UTC+03:00)

ISS - Pass Details

Date: 28 December 2017
Orbit: 402 x 406 km, 51.6° (Epoch: 20 June)

Event Time Altitude Azimuth Distance (km) Brightness Sun altitude
Exits shadow 05:57:56 - 189° (S) 2,143 -0.1 -21.8°
Reaches altitude 10° 06:00:17 10° 165° (SSE) 1,482 -0.7 -21.4°
Drops below altitude 10° 06:03:37 10° 104° (ESE) 1,492 0.2 -20.8°
Enters shadow 07:03:13 -64° 241° (WSW) 11,923 3.5 -11.3°
Maximum altitude 07:38:04 70° 152° (SSE) 449 -3.4 -6.0°
Sets 07:43:32 0° 67° (ENE) 2,370 0.7 -5.2°
